[[{"header":{"parameterUnit":"m.s-1","parameterCategory":1,"la1":30.2991,"la2":30.254,"lo1":-89.0895,"lo2":-89.0444,"dy":0.0017,"dx":0.0017,"nx":28,"ny":28,"refTime":"2024-05-05T09:00:00:Z","depth":0,"parameterNumber":2,"parameterNumberName":"U-component_of_WINDS"},"data":[0,0,0,0,0,0,0,0,0,0,0,0,0,0,0,0,0,0,0,0,0,0,0,0,0,0,0,0,0,0,0,0,0,0,0,0,0,0,0,0,0,0,0,0,0,0,0,0,0,0,0,0,0,0,0,0,0,0,-3.1221,-3.1221,0,-3.1235,-3.1235,-3.1235,-3.1192,-3.1191,-3.119,-3.1188,-3.1201,-3.1203,-3.1205,0,0,0,0,0,0,0,0,0,0,0,0,0,-3.1158,-3.1159,-3.1221,-3.1221,-3.1221,-3.1235,-3.1235,-3.1235,-3.1193,-3.1191,-3.1189,-3.1188,-3.1201,-3.1203,-3.1205,0,0,0,0,0,0,0,0,0,0,0,0,0,-3.118,-3.116,-3.1221,-3.1202,-3.12,-3.1235,-3.1235,-3.1235,-3.1193,-3.1191,-3.1189,-3.1187,-3.12,-3.1203,-3.1205,-3.1258,0,0,-3.1212,-3.1213,0,0,0,0,0,0,0,0,-3.1178,-3.1182,-3.1204,-3.1203,-3.1202,-3.121,-3.1217,-3.1243,-3.1193,-3.1196,-3.1188,-3.1186,-3.1206,-3.1208,-3.1214,-3.1259,-3.126,-3.1212,-3.1214,-3.1215,-3.1215,0,0,0,0,0,0,0,-3.1177,-3.1181,-3.1226,-3.1205,-3.1203,-3.1192,-3.1193,-3.1222,-3.1211,-3.1195,-3.1192,-3.1195,-3.1205,-3.1212,-3.1214,-3.126,-3.1212,-3.1214,-3.1216,-3.1217,-3.1349,-3.1351,0,0,0,0,0,0,-3.1178,-3.118,-3.1226,-3.1227,-3.1185,-3.1195,-3.1196,-3.1209,-3.1211,-3.1209,-3.1196,-3.1192,-3.1209,-3.1212,-3.1215,-3.1277,-3.1215,-3.1217,-3.1218,-3.1347,-3.1349,-3.1352,0,0,0,0,0,0,-3.1177,-3.1183,-3.1225,-3.1203,-3.1207,-3.1198,-3.1213,-3.121,-3.1218,-3.1212,-3.121,-3.1206,-3.1208,-3.1211,-3.1248,-3.1277,-3.1218,-3.122,-3.1344,-3.1348,-3.1351,-3.1402,0,0,0,0,0,0,-3.1175,-3.1182,-3.1203,-3.1204,-3.1209,-3.1259,-3.1215,-3.1212,-3.1222,-3.1218,-3.122,-3.1219,-3.1206,-3.1245,-3.125,-3.1279,-3.1222,-3.1342,-3.1346,-3.135,-3.1397,-3.1406,-3.1414,0,0,0,0,0,-3.1173,-3.1216,-3.1204,-3.121,-3.1234,-3.126,-3.1263,-3.1249,-3.1225,-3.1245,-3.1241,-3.1219,-3.1273,-3.1249,-3.1255,-3.1284,-3.134,-3.1345,-3.1349,-3.1394,-3.1405,-3.1414,0,0,0,0,0,0,-3.1218,-3.1216,-3.1202,-3.1247,-3.1254,-3.1253,-3.1278,-3.1261,-3.1274,-3.1269,-3.125,-3.1251,-3.1291,-3.1292,-3.1265,-3.1336,-3.1302,-3.1308,-3.1334,-3.1344,-3.1352,-3.1351,-3.1224,0,0,0,0,0,-3.1233,-3.1255,-3.1252,-3.1292,-3.1297,-3.1287,-3.1298,-3.1286,-3.1293,-3.1295,-3.1294,-3.1301,-3.132,-3.1332,-3.1349,-3.1398,-3.1398,-3.1422,-3.143,-3.1437,-3.1442,-3.1467,-3.1477,-3.1367,-3.1367,-3.1367,0,0,-3.1265,-3.1266,-3.1281,-3.1301,-3.1305,-3.1328,-3.129,-3.1315,-3.1332,-3.1299,-3.1333,-3.1333,-3.134,-3.1383,-3.1402,-3.1384,-3.1472,-3.1443,-3.1448,-3.1449,-3.1473,-3.1483,-3.1493,-3.1371,-3.137,-3.1369,0,0,-3.1333,-3.1337,-3.137,-3.1376,-3.1383,-3.1377,-3.1385,-3.1387,-3.1386,-3.142,-3.1396,-3.1416,-3.1448,-3.1454,-3.1461,-3.1534,-3.1514,-3.154,-3.1582,-3.1607,-3.1616,-3.1623,-3.1648,-3.1658,-3.1545,-3.1546,-3.1546,0,-3.1371,-3.1405,-3.139,-3.1417,-3.1427,-3.1399,-3.1433,-3.1439,-3.1451,-3.1458,-3.1439,-3.148,-3.1482,-3.1526,-3.1544,-3.1551,-3.1559,-3.1538,-3.1616,-3.1623,-3.163,-3.1654,-3.1663,-3.1549,-3.1548,-3.1548,-3.1548,0,-3.145,-3.1474,-3.15,-3.1514,-3.1526,-3.1557,-3.1546,-3.1561,-3.1549,-3.1544,-3.158,-3.1582,-3.1599,-3.1609,-3.1597,-3.1651,-3.164,-3.1619,-3.1584,-3.1644,-3.1666,-3.1675,-3.1553,-3.1552,-3.1551,-3.155,0,0,-3.1545,-3.1551,-3.1561,-3.1566,-3.1573,-3.1591,-3.1621,-3.1638,-3.165,-3.1661,-3.1684,-3.1714,-3.1694,-3.1703,-3.1691,-3.1714,-3.177,-3.169,-3.1689,-3.1703,-3.1829,-3.1844,-3.1854,-3.1758,-3.176,-3.1761,-3.1828,0,-3.1612,-3.1662,-3.165,-3.17,-3.1722,-3.1697,-3.1723,-3.173,-3.1727,-3.1745,-3.1742,-3.1762,-3.1736,-3.1741,-3.1762,-3.1759,-3.1795,-3.1754,-3.1779,-3.178,-3.1776,-3.1866,-3.1881,-3.1944,-3.1837,-3.1838,-3.1839,0,-3.1696,-3.1709,-3.1762,-3.1765,-3.1774,-3.1797,-3.1812,-3.183,-3.1838,-3.1834,-3.1844,-3.1829,-3.1858,-3.1825,-3.1864,-3.1837,-3.1847,-3.1847,-3.1849,-3.1849,-3.1812,-3.1867,-3.1964,-3.1973,-3.1853,-3.1851,-3.185,0,-3.1758,-3.179,-3.1825,-3.1831,-3.1837,-3.1854,-3.1857,-3.1863,-3.1874,-3.1887,-3.1894,-3.1911,-3.1919,-3.1932,-3.1922,-3.1899,-3.1963,-3.1929,-3.196,-3.1961,-3.1973,-3.1972,-3.2072,-3.1983,-3.1982,-3.1982,-3.1982,0,-3.1833,-3.1865,-3.1853,-3.1875,-3.1911,-3.1897,-3.1933,-3.1933,-3.1939,-3.196,-3.194,-3.196,-3.1946,-3.1965,-3.1958,-3.1991,-3.1996,-3.1993,-3.199,-3.1994,-3.1994,-3.1999,-3.1993,-3.1985,-3.1984,-3.1984,-3.1983,0,-3.1908,-3.1901,-3.1938,-3.1941,-3.1942,-3.1968,-3.1971,-3.1991,-3.1987,-3.2014,-3.202,-3.2014,-3.2035,-3.2027,-3.205,-3.2044,-3.2087,-3.2079,-3.2084,-3.2082,-3.2113,-3.211,-3.2218,-3.2231,-3.2135,-3.2135,-3.2136,0,-3.1955,-3.1979,-3.1985,-3.1998,-3.2003,-3.2024,-3.2035,-3.2023,-3.2036,-3.2047,-3.2066,-3.2086,-3.2101,-3.2136,-3.2134,-3.2151,-3.2143,-3.218,-3.2145,-3.2148,-3.2142,-3.214,-3.2142,-3.2186,-3.2187,-3.2188,-3.2189,0,-3.2039,-3.2035,-3.2052,-3.2069,-3.2083,-3.2096,-3.2107,-3.2118,-3.2107,-3.2123,-3.2144,-3.2156,-3.218,-3.22,-3.2215,-3.2218,-3.2201,-3.22,-3.2208,-3.2211,-3.2212,-3.221,-3.2101,-3.2197,-3.2196,-3.2195,-3.2195,-3.2195,-3.21,-3.2121,-3.2128,-3.2148,-3.2156,-3.2166,-3.2185,-3.2185,-3.2203,-3.2221,-3.2213,-3.2238,-3.2246,-3.2265,-3.2271,-3.229,-3.2276,-3.2288,-3.229,-3.2293,-3.2296,-3.2211,-3.2293,-3.2293,-3.2293,-3.2293,-3.2292,0,-3.2182,-3.2186,-3.2205,-3.2221,-3.2237,-3.2221,-3.2232,-3.2247,-3.2269,-3.2278,-3.2293,-3.2319,-3.2338,-3.2338,-3.2356,-3.2371,-3.2364,-3.2376,-3.2374,-3.2375,-3.2309,-3.23,-3.2382,-3.2382,-3.2382,-3.2382,-3.2382,-3.2382,-3.2226,-3.226,-3.2257,-3.2295,-3.2298,-3.2323,-3.2331,-3.234,-3.2347,-3.2376,-3.2393,-3.2393,-3.2398,-3.2416,-3.2433,-3.2433,-3.244,-3.2455,-3.2451,-3.2389,-3.238,-3.2371,-3.2362,-3.2457,-3.2457,-3.2515,-3.2516,-3.2516]},{"header":{"parameterUnit":"m.s-1","parameterCategory":1,"la1":30.2991,"la2":30.254,"lo1":-89.0895,"lo2":-89.0444,"dy":0.0017,"dx":0.0017,"nx":28,"ny":28,"refTime":"2024-05-05T09:00:00:Z","depth":0,"parameterNumber":3,"parameterNumberName":"V-component_of_WINDS"},"data":[0,0,0,0,0,0,0,0,0,0,0,0,0,0,0,0,0,0,0,0,0,0,0,0,0,0,0,0,0,0,0,0,0,0,0,0,0,0,0,0,0,0,0,0,0,0,0,0,0,0,0,0,0,0,0,0,0,0,3.832,3.8321,0,3.8356,3.8357,3.8357,3.84,3.84,3.8401,3.8402,3.8434,3.8434,3.8434,0,0,0,0,0,0,0,0,0,0,0,0,0,3.8286,3.8286,3.832,3.8321,3.8321,3.8356,3.8357,3.8357,3.8399,3.84,3.8401,3.8402,3.8433,3.8434,3.8434,0,0,0,0,0,0,0,0,0,0,0,0,0,3.8309,3.8286,3.832,3.8347,3.8349,3.8356,3.8357,3.8357,3.8399,3.84,3.8401,3.8402,3.8433,3.8434,3.8434,3.8416,0,0,3.8435,3.8435,0,0,0,0,0,0,0,0,3.8307,3.831,3.8342,3.8345,3.8348,3.8375,3.8356,3.8377,3.8399,3.838,3.8402,3.8403,3.8413,3.8415,3.8419,3.8417,3.8419,3.8435,3.8435,3.8435,3.8436,0,0,0,0,0,0,0,3.8306,3.8309,3.8334,3.8343,3.8346,3.8356,3.836,3.836,3.839,3.8382,3.8385,3.8389,3.8414,3.8419,3.842,3.8419,3.8435,3.8435,3.8436,3.8436,3.8407,3.8406,0,0,0,0,0,0,3.8301,3.8307,3.8333,3.8335,3.833,3.8356,3.8361,3.8365,3.839,3.8395,3.8388,3.8391,3.8418,3.842,3.8422,3.8404,3.8435,3.8436,3.8436,3.8408,3.8406,3.8405,0,0,0,0,0,0,3.83,3.8303,3.8332,3.8322,3.8327,3.8355,3.836,3.8365,3.837,3.8395,3.84,3.8387,3.8419,3.8421,3.8418,3.8405,3.8436,3.8436,3.8409,3.8407,3.8406,3.8367,0,0,0,0,0,0,3.8299,3.8302,3.8296,3.8322,3.8327,3.8328,3.8359,3.8365,3.8371,3.8374,3.8396,3.84,3.842,3.8417,3.8418,3.8406,3.8436,3.841,3.8408,3.8406,3.837,3.8364,3.836,0,0,0,0,0,3.8297,3.8282,3.8296,3.8299,3.832,3.8327,3.833,3.8354,3.8369,3.8363,3.838,3.8399,3.8407,3.8416,3.8418,3.8406,3.8411,3.8409,3.8407,3.8372,3.8365,3.836,0,0,0,0,0,0,3.8252,3.8286,3.8301,3.8294,3.8308,3.8335,3.8328,3.8347,3.8355,3.8358,3.8386,3.839,3.8384,3.8395,3.8405,3.8391,3.8412,3.841,3.8385,3.8379,3.8374,3.8372,3.8437,0,0,0,0,0,3.8242,3.8246,3.8275,3.8266,3.8272,3.8299,3.8302,3.832,3.8335,3.834,3.8357,3.8369,3.8374,3.8377,3.8383,3.8371,3.8377,3.8364,3.8359,3.8355,3.8353,3.8349,3.8344,3.8398,3.8398,3.8398,0,0,3.8219,3.8238,3.8239,3.8257,3.827,3.8273,3.8303,3.8304,3.8307,3.834,3.8339,3.8351,3.8367,3.836,3.8358,3.8369,3.834,3.8352,3.8349,3.8349,3.8347,3.8341,3.8337,3.8397,3.8397,3.8397,0,0,3.8181,3.8195,3.8191,3.8204,3.8223,3.8242,3.824,3.8265,3.8275,3.8275,3.83,3.8303,3.8311,3.8322,3.8328,3.8296,3.8315,3.8297,3.8272,3.8268,3.8264,3.826,3.825,3.8246,3.8295,3.8295,3.8295,0,3.815,3.8158,3.8185,3.8186,3.8194,3.8226,3.8222,3.8232,3.8252,3.8256,3.8268,3.8281,3.8293,3.829,3.8283,3.8286,3.8286,3.8295,3.8263,3.8259,3.8256,3.8247,3.8243,3.8293,3.8293,3.8293,3.8293,0,3.812,3.8124,3.8118,3.8139,3.8146,3.8144,3.8171,3.8174,3.8191,3.8208,3.8208,3.8224,3.8235,3.8236,3.8251,3.8235,3.8242,3.8258,3.8279,3.8249,3.824,3.8237,3.829,3.829,3.8291,3.8292,0,0,3.8053,3.8092,3.8089,3.81,3.8125,3.8128,3.8128,3.8141,3.8144,3.8156,3.8157,3.8164,3.818,3.8187,3.8204,3.8201,3.8176,3.8218,3.8218,3.821,3.8161,3.8149,3.8145,3.8189,3.8188,3.8187,3.816,0,3.802,3.8024,3.8049,3.8045,3.805,3.8081,3.8081,3.8096,3.8112,3.8118,3.8134,3.814,3.816,3.8165,3.8162,3.818,3.8167,3.8182,3.8189,3.8189,3.8186,3.814,3.8128,3.8101,3.8157,3.8156,3.8156,0,3.7982,3.7996,3.7992,3.802,3.8023,3.8022,3.8037,3.8042,3.806,3.8072,3.8081,3.8101,3.8102,3.8122,3.8124,3.8134,3.8139,3.8148,3.8147,3.8149,3.8171,3.8142,3.8093,3.8089,3.8151,3.8151,3.8152,0,3.7936,3.7953,3.7954,3.7962,3.7993,3.7992,3.8005,3.8024,3.803,3.8043,3.8047,3.8058,3.8065,3.8073,3.8096,3.8108,3.8096,3.8117,3.8106,3.8105,3.8102,3.8102,3.8054,3.8103,3.8103,3.8103,3.8103,0,3.7897,3.7894,3.7934,3.7934,3.7932,3.7961,3.7958,3.7973,3.799,3.7994,3.8021,3.8023,3.8053,3.8059,3.8076,3.8076,3.8078,3.8088,3.8093,3.8086,3.8085,3.809,3.8093,3.8102,3.8102,3.8102,3.8103,0,3.7845,3.7871,3.7875,3.7905,3.7913,3.791,3.7935,3.7937,3.7955,3.7959,3.7962,3.799,3.7998,3.8022,3.8035,3.8047,3.8043,3.8051,3.8037,3.8041,3.8028,3.803,3.7982,3.7978,3.8029,3.8028,3.8028,0,3.7819,3.7818,3.7849,3.7855,3.7867,3.7875,3.7883,3.7911,3.7918,3.794,3.7938,3.795,3.796,3.7972,3.7993,3.8004,3.8013,3.7996,3.8015,3.8009,3.8015,3.8015,3.8016,3.7992,3.7991,3.7991,3.799,0,3.7771,3.7784,3.7796,3.7812,3.7821,3.7834,3.7849,3.7852,3.7884,3.789,3.7901,3.7909,3.7925,3.7935,3.795,3.7962,3.7981,3.7984,3.7983,3.7976,3.7969,3.7974,3.8027,3.7985,3.7986,3.7986,3.7986,3.7987,3.7732,3.7733,3.7756,3.7768,3.7783,3.7797,3.7801,3.782,3.783,3.7846,3.7862,3.7871,3.789,3.7912,3.7923,3.7929,3.794,3.7936,3.7936,3.7935,3.7933,3.7967,3.7932,3.7932,3.7932,3.7932,3.7933,0,3.7686,3.7703,3.7714,3.7736,3.7745,3.7765,3.7782,3.7789,3.7797,3.7813,3.7824,3.7837,3.7848,3.787,3.7883,3.7884,3.7893,3.7887,3.7887,3.789,3.7922,3.7923,3.7879,3.7879,3.7879,3.7879,3.7879,3.7879,3.7664,3.7668,3.7685,3.7697,3.7713,3.7724,3.7732,3.7745,3.7759,3.7773,3.7783,3.7798,3.7817,3.7832,3.7843,3.7849,3.7853,3.7843,3.7852,3.7882,3.7887,3.7892,3.7894,3.7844,3.7844,3.782,3.782,3.782]}]]